FENGYUN 1C DEB, 36269

Orbit data source: Space-Track

FENGYUN 1C DEB, 36269 is space debris in SSO originally from a launch on Mon, 10 May 1999 UTC launched from the Taiyaun Space Center, China (TSC). Fengyun 1C debris stems from the Chinese weather satellite Fengyun-1C, which was intentionally destroyed by a Chinese anti-satellite missile in 2007. This event dramatically increased the amount of space debris, with thousands of trackable fragments posing hazards to satellites and human spaceflight. The Fengyun 1C debris cloud has become a focal point in discussions about space sustainability and the need for international regulations to prevent the creation of new debris.

Loading next visibility...
Identifier
36269, 1999-025DWW
Orbit
SSO
Country
Flag of CNCN / PRC
Related business
Manufacturer
Unknown
Mission
Spacecraft
Bus & Motor
Unknown
Mass
Unknown
Launch date (UTC)
1999-05-10 (27 years ago)
Launch vehicle
Unknown
Launch site
Taiyaun Space Center, China (TSC)
Object type
Payload
Rocket body
Debris
Shape & HBR
Unknown shape, 0.1 m
Radar Cross Section
Small (<0.1 m²)

Expand to show TLE details & history
Last TLE update: 3 days ago

TLE from 3 days ago
0 FENGYUN 1C DEB
1 36269U 99025DWW 26069.08135960  .00004832  00000-0  14844-2 0  9996
2 36269  99.1197  19.7812 0234183  28.0389 333.3178 14.27480907889626
Epoch: 2026-03-10T01:57Z
TLE epoch observation values (Epoch: 2026-03-10T01:57:09.469Z)
Latitude
-0.00004°
Longitude
-177.27332°
Altitude
653.663 km
Speed
7.609 km/s
True Right ascension
01h 19m 07s
True Declination
0° 00' 00"
Sunlit
Object was in daylight at epoch
Visualization orbit readout
Latitude
Unknown
Longitude
Unknown
Altitude
Unknown
Speed
Unknown
Apparent Right ascension
Unknown
Apparent Declination
Unknown
Sunlit
N/A
Visualization observer readout
Local Sidereal Time
02:09:29
Azimuth
Unknown
Elevation
Unknown
Doppler factor
Unknown
Orbital elements
Apogee altitude
965.367 km
Perigee altitude
629.293 km
Semi-major axis
7,175.467 km
Eccentricity
0.02342
Inclination
99.1197°
RAAN
19.7812°
Arg. of periapsis
28.0389°
True anomaly
332.08055°
Mean anomaly
333.3178°
Eccentric anomaly
332.70245°
Mean motion
3.57082 °/min
Orbital period
100.82 mins
BSTAR
0.0014844
Loading maneuver chart data...
Computing Atmospheric mass density...

Documentation

Showing up to 5 results
|